Погода в Мариуполе

Погода в Мариуполе : погода сейчас, прогноз погоды и архив. Всё, что Вы хотите узнать о погоде в Мариуполе!

Поиск расширенной информации на нашем сайте:

Полезная информация: Нужно шлифовать строганный брус les-mir.ru.
в москве дюбель цена адекватная

Другие новости

Новости СМИ2

Главная страница сайта

Новости сайта

02.10.2013

Напоминаем, что на нашем новом сайте вы можете получить высокодетализированные прогнозы погоды по пунктам России, СНГ и мира (включающие важные для авиации метеовеличины, такие как направление и скорость ветра, видимость, явления погоды, количество и форма облачности, нижняя и верхняя граница облачности), а также ознакомиться с разнообразными материалами по авиационной метеорологии и подборкой полезных ссылок на эту тему.

Сайт Метеоцентр.Азия посвящён разработке технологий оптимизации авиаметеорологического обслуживания, включая проектирование и перспективное создание нескольких автоматизированных авиаметеорологических систем:
- система выпуска высокодетальных прогностических карт явлений погоды для нижнего воздушного пространства по России и ближнему зарубежью;
- система верификации прогнозов TAF (выпускаемых синоптиками официальных АМСГ РФ и ближнего зарубежья) и AUTOTAF (выпускаемых сайтом Метеоцентр.Азия) - выявление ошибок, онлайн-сопоставление с фактической погодой METAR, автоматическое внесение коррективов в прогнозы при резком отклонении фактической погоды от прогноза, подсчёт оправдываемости прогнозов по элементам и в целом;
- система обработки, анализа и отображения авиаметеорологической информации для применения провайдерами метеорологической информации.

Рекомендуем: Обучение наращиванию ногтей в ONS - обучение наращиванию ногтей в москве.

Погода в Мариуполе - сегодня

Время (UTC), дата Ветер
(°,м/с) 
Видим.   Явления Облачность Т
(°С)
Тd
(°С)
f(%) Тe
(°С)
Pmin
(гПа)
dP
(гПа)
Po
(мм)
O2
(г/м3)
Тmin Tmax R s Состояние
почвы
15 28.10.14 110 (В) 20000 м    ясно 
+6 +1.4 72 +4  1030.5  766  302           
18 28.10.14 100 (В) 20000 м    ясно 
+5.6 -3.7 51 +3  1030.5  766  303    +8.4      мокрая 
21 28.10.14 080 (В) 20000 м    ясно 
+3.6 -3.5 60 1030.2  -0.4  766  305           
00 29.10.14 100 (В) 20000 м    ясно 
+2.2 -2.2 73 1029.3  -0.9  765  306           
03 29.10.14 070 (В) 20000 м    ясно 
+1.7 -0.3 87 -1  1029  -0.3  765  306           
06 29.10.14 090 (В) 20000 м    ясно 
+4.4 +1.6 82 +1  1029  0.1  765  303  +1.3  +0.5      затоплена
водой 
09 29.10.14 110 (В) 20000 м    ясно 
+8.1 +2 65 +5  1028.1  -0.8        110     
12 29.10.14 110 (В) 20000 м    3/0 верхняя 
[Ci fib]
+8.8 +1.7 61 +6  1026.6  -1.5  764  298           
15 29.10.14 090 (В) 20000 м    3/0 верхняя 
[Ci fib]
+9 -1.5 48 +7  1026.4  -0.2  763  298           
18 29.10.14 090 (В) 20000 м    ясно 
+8 -0.3 56 +5  1025.8  -0.6  763  299    +9.3       
21 29.10.14 090 (В) 20000 м    ясно 
+6 +1.7 74 +4  1025.5  -0.4  763  300           
00 30.10.14 090 (В) 20000 м    6/0 верхняя 
[Cs]
+4.1 +1.2 81 +1  1024.6  -0.9  762  302         
03 30.10.14 090 (В) 20000 м    9/9 450 м 
[Sc]
+4.5 +2.8 89 +1  1023.8  -0.8  761  301           
06 30.10.14 110 (В) 20000 м    8/0 средняя, верхняя 
[Ac As|Cc]
+4.9 +2.4 84 +1  1023.4  -0.4  761  301  +3.1  +0.5      сухая 
09 30.10.14 110 (В) 10  20000 м    9/9 700 м средняя 
[Sc|Ac trans]
+7.2 +2.6 73 +4  1022.3  -1  760  298        мокрый или
старый снег
50-90% 
12 30.10.14 110 (В) 20000 м    3/0 средняя 
[Ac trans]
+9.8 +2.5 60 +7  1020.3  -1.9  759  295         
15 30.10.14 120 (ЮВ) 20000 м    9/0 средняя, верхняя 
[Ac As|Cc]
+8.4 +3.5 71 +6  1020.1  -0.2  759  296           
18 30.10.14 110 (В) 20000 м    9/0 средняя 
[Ac trans]
+9.3 +2.7 63 +7  1019.6  -0.5  758  295    +9.8       
21 30.10.14 090 (В) 20000 м    9/0 средняя 
[Ac trans]
+9.2 +2.8 64 +7  1018.9  -0.7  758  295           
00 31.10.14 090 (В) 20000 м    ясно 
+7.9 +1.2 63 +6  1018.5  -0.4             
03 31.10.14 070 (В) 10 км    8/0 верхняя 
[Cc]
+5.8 +0.9 71 +4  1018.3  -0.3  757  299           
06 31.10.14 090 (В) 4000 м  слаб. морось  10/10 200 м 
[St]
+4.5 +2.2 85 +3  1018.9  0.6  758  300  +4.2    0.0     
09 31.10.14 040 (СВ) 10 км  {морось}  10/10 720 м 
[Sc]
+7.5 +4.3 80 +6  1017.8  -1  757  296          полностью
покрыта
пылью 
12 31.10.14 100 (В) 10 км  {морось}  10/10 720 м 
[Sc]
+10.1 +4.5 68 +9  1016.5  -1.3  756  293           
15 31.10.14 080 (В) 10 км    10/10 840 м 
[Sc]
+8.4 +4.5 76 +8  1016.7  0.2  756  295           
Время (UTC), дата Ветер
(°,м/с) 
Видим.   Явления Облачность Т
(°С)
Тd
(°С)
f(%) Тe
(°С)
Pmin
(гПа)
dP
(гПа)
Po
(мм)
O2
(г/м3)
Тmin Tmax R s Состояние
почвы

Для получения пояснительной информации подведите курсор к названию столбца.

ПОГОДА в Мариуполе - архив

Всё, что Вы хотите узнать о погоде в Мариуполе - удобно и подробно!

Выберите нужную дату (начиная с 1 января 2013* года) и нажмите кнопку "Найти".
Будут отображены архивные сводки погоды по пункту Мариуполь, начиная с указанной даты.


Отображать данные в формате CSV (для использования в таблицах Excel)


Внимание! Наш архив погоды предназначен исключительно для личного некоммерческого использования в познавательных целях. Если Вам необходимы официальные справки о состоянии погоды (для производственных, юридических, коммерческих и т.п. целей), обращайтесь в органы Росгидромета.

*Примечание: данная дата относится к архиву по метеостанциям СССР (Россия, СНГ, Балтия).
Архив по метеостанциям Зарубежной Европы и Азии (кроме Китая) хранится 10 дней, по другим регионам земного шара (Китай, Африка, Америка, Австралия, Океания) - 1 день.

Мариуполь - район местоположения метеостанции


Название, широта, долгота, высота метеостанции:
Мариуполь (город) 47°ш. 37.5°д. 70 м над ур. моря [Украина]

Дополнительная информация

В oтличие oт бoльшинства пoгoдных сайтoв мы публикуем пoдрoбную метеoинфoрмацию в детальнoм прoфессиoнальнoм фoрмате.

Характеристики температуры и влажнoсти вoздуха измеряются на высoте 2 м в тени вдали oт зданий и деревьев.
Скoрoсть ветра измеряется на высoте 10 м (на урoвне рoста челoвека скoрoсть ветра ниже в 1.5-2 раза). Если метеoстанция нахoдится в гoрoде или в лесу, тo скoрoсть ветра занижена на 2-4 м/с пo сравнению с oткрытым местoм. Скoрoсть ветра над акватoриями крупных рек и oзёр, а также на вершинах хoлмoв на 2-5 м/с выше, чем в oбычных услoвиях.
Атмoсфернoе давление в разных тoчках местнoсти мoжет значительнo oтличаться oт давления на метеoстанции, в зависимoсти oт услoвий рельефа (при пoдъёме на 10 м давление пoнижается примернo на 1 мм рт.ст.).